#timestamp,LO_Frequency,Hit,StdDev 
1660878015.8,286047002.7,N
1660878035.7,286047000.2,N
1660878055.5,286047002.8,N
1660878075.4,286047002.0,N
1660878095.2,286047002.0,N
1660878115.0,286047002.4,N
1660878115.9,286047002.4,N
1660878135.8,286047002.2,N
1660878155.6,286047001.4,N
1660878175.4,286047001.3,N
1660878195.3,286047001.9,N
1660878215.1,286047002.4,N
1660878235.9,286047002.2,N
1660878255.7,286047001.9,N
1660878275.5,286047002.2,N
1660878295.4,286047002.3,N
1660878315.2,286047002.5,N
1660878335.0,286047001.6,N
1660878335.9,286047001.6,N
1660878355.8,286046999.8,N
1660878375.6,286047000.9,N
1660878395.5,286046999.7,N
1660878415.3,286047002.4,N
1660878435.1,286047002.2,N
1660878455.9,286047002.0,N
1660878475.7,286047002.0,N
1660878495.5,286047001.6,N
1660878515.4,286047002.0,N
1660878535.2,286047002.5,N
1660878555.1,286047001.6,N
1660878556.0,286047001.6,N
1660878605.8,286047001.4,E
1660878615.8,286047002.3,N
1660878635.6,286046999.8,P
1660878655.4,286046999.7,N
1660878675.3,286046999.7,N
1660878695.1,286047000.2,N
1660878715.8,286047000.0,N
1660878735.7,286047000.1,N
1660878755.5,286047000.4,N
1660878775.4,286046999.8,N
1660878795.2,286047000.2,N
1660878815.0,286047002.6,Y
1660878815.9,286047002.6,P
1660878835.8,286047000.4,N
1660878855.6,286047002.7,N
1660878875.4,286047002.2,N
1660878895.3,286047002.5,N
1660878915.1,286047002.1,N
1660878935.9,286047002.4,N
1660878955.7,286046999.8,N
1660878975.5,286047000.2,N
1660878995.4,286046999.8,N
1660879015.2,286046999.8,N
1660879035.0,286047000.6,N
1660879036.0,286047000.6,N
1660879055.8,286047000.4,N
1660879075.6,286047000.0,N
1660879095.5,286047000.7,N
1660879115.3,286047000.4,N
1660879135.1,286047000.1,N
1660879155.9,286047000.1,N
1660879175.7,286046999.9,N
1660879195.6,286046998.1,N
1660879215.4,286047000.0,N
1660879235.2,286047002.3,N
1660879255.1,286047000.1,N
1660879256.0,286047000.1,N
1660879275.8,286047000.2,N
1660879295.7,286047000.4,N
1660879315.5,286047002.4,N
1660879335.3,286047000.2,N
1660879355.2,286047000.1,N
1660879375.9,286047000.0,N
1660879395.7,286046999.8,N
1660879415.6,286047002.7,N
1660879435.4,286047002.2,N
1660879455.3,286047001.9,N
1660879475.1,286047002.8,N
1660879476.0,286047002.8,N
1660879495.8,286046999.9,N
1660879515.7,286047002.0,N
1660879535.5,286047002.0,N
1660879555.3,286047002.3,N
1660879575.2,286047000.1,N
1660879595.0,286047001.9,N
1660879595.9,286047001.9,N
1660879615.8,286047002.5,N
1660879635.6,286047004.0,Y
1660879655.4,286047001.9,P
1660879675.3,286047002.0,P
1660879695.1,286047001.6,P
1660879715.9,286047001.7,Y
1660879735.7,286047002.3,P
1660879755.5,286047000.3,N
1660879775.4,286047000.5,N
1660879795.2,286047000.7,N
1660879815.0,286047000.4,N
1660879815.9,286047000.4,N
1660879835.8,286047000.9,N
1660879855.6,286047000.5,N
1660879875.5,286047000.4,N
1660879895.3,286047000.9,N
1660879915.1,286047000.7,N
1660879935.9,286046999.9,N
1660879955.7,286047000.2,N
1660879975.5,286046999.9,N
1660879995.4,286047002.7,Y
1660880015.2,286047000.6,P
1660880035.1,286047000.2,P
1660880036.0,286047000.2,N
1660880055.8,286047001.0,Y
1660880075.6,286047001.2,P
1660880095.5,286047001.2,N
1660880115.3,286047000.8,N
1660880135.1,286047000.0,N
1660880155.9,286047002.7,Y
1660880175.7,286047002.2,P
1660880195.6,286047001.5,N
1660880215.4,286047001.8,N
1660880235.2,286047001.3,N
1660880255.1,286047004.2,Y
1660880256.0,286047004.2,P
1660880275.8,286047001.5,N
1660880295.7,286047001.7,N
1660880315.5,286047001.3,N
1660880335.3,286047002.7,N
1660880355.2,286046999.7,N
1660880375.0,286046999.9,N
1660880375.9,286046999.9,N
1660880395.8,286047000.8,N
1660880415.6,286046998.2,N
1660880435.4,286046998.6,N
1660880455.3,286046998.5,N
1660880475.1,286047000.0,N
1660880495.8,286047000.3,N
1660880515.7,286046998.1,N
1660880535.5,286046998.7,N
1660880555.4,286046999.0,N
1660880575.2,286046999.5,N
1660880595.0,286046999.6,N
1660880595.9,286046999.6,N
1660880615.8,286046996.9,N
1660880635.6,286046999.6,N
1660880655.4,286046996.9,N
1660880675.3,286046996.5,N
1660880695.1,286046999.6,N
1660880715.9,286046997.0,N
1660880735.7,286046996.8,N
1660880755.5,286046997.2,N
1660880775.4,286046997.8,N
1660880795.2,286046996.8,N
1660880815.0,286046997.2,N
1660880815.9,286046997.2,N
1660880835.8,286046996.8,N
1660880855.6,286046997.1,N
1660880875.5,286046997.4,N
1660880895.3,286046997.5,N
1660880915.1,286046995.1,Y
1660880935.9,286046997.4,P
1660880955.7,286046997.5,P
1660880975.6,286046997.7,P
1660880995.4,286046997.4,Y
1660881015.2,286047000.9,P
1660881035.1,286046998.4,N
1660881036.0,286046998.4,N
1660881055.8,286046999.0,N
1660881075.6,286046999.2,N
1660881095.5,286046999.1,N
1660881115.3,286046999.3,N
1660881135.2,286046998.5,N
1660881155.9,286046998.6,N
1660881175.7,286046999.4,N
1660881195.6,286046998.8,N
1660881215.4,286046998.3,N
1660881235.2,286047001.0,N
1660881255.1,286047001.1,N
1660881256.0,286047001.1,N
1660881275.8,286046998.7,N
1660881295.7,286046999.5,N
1660881315.5,286046999.3,N
1660881335.3,286046998.7,N
1660881355.2,286046999.0,N
1660881375.0,286046998.5,N
1660881375.9,286046998.5,N
1660881395.7,286046998.2,N
1660881415.6,286046998.8,N
1660881435.4,286046998.5,N
1660881455.3,286046998.7,N
1660881475.1,286046996.6,Y
1660881476.0,286046996.6,P
1660881495.8,286046998.1,N
1660881515.7,286046998.8,N
1660881535.5,286046999.0,N
1660881555.3,286046999.3,N
1660881575.2,286046998.4,N
1660881595.0,286046998.9,N
1660881595.9,286046998.9,N
